User: anonymous   Login
Location: Newark
(39.6172°N, 96.8533°W)
Time: 21:14:48
(UTC+00:00)
Language:

A-11 Canister half - Orbit

View from above orbital plane
View from above orbital plane
View from above satellite
View from above satellite

Ground track
Ground track

The orbit data is extracted from the following two-line orbital elements,

1    51U 60009C   20048.23641882 -.00000077  00000-0  80436-4 0  9999
2    51  47.2149   2.4315 0103981 163.4535 196.9686 12.18270926649304
Epoch (UTC): 17 February 2020 05:40:26
Eccentricity: 0.0103981
inclination: 47.2149°
perigee height: 1517 km
apogee height: 1683 km
right ascension of ascending node: 2.4315°
argument of perigee: 163.4535°
revolutions per day: 12.18270926
mean anomaly at epoch: 196.9686°
orbit number at epoch: 64930

The dashed part of the orbit path shows where the satellite is in the earth's shadow,  

DLR